| time (UTC) | temp F | wind direction | speed knots | gust knots | rain 1hr in | rain 24hr in | rain mn in | humidity % | barometer mb |
| 20260508103526 | 49 | 236 | 1.7 | 3.5 | 0.00 | 0.00 | 0.00 | 83 | 1016.9 |
| 20260508102525 | 49 | 230 | 1.7 | 5.2 | 0.00 | 0.00 | 0.00 | 83 | 1016.9 |
| 20260508101524 | 49 | 243 | 1.7 | 3.5 | 0.00 | 0.00 | 0.00 | 83 | 1017.0 |
| 20260508100521 | 49 | 247 | 1.7 | 2.6 | 0.00 | 0.00 | 0.00 | 83 | 1016.9 |
| 20260508095519 | 49 | 236 | 1.7 | 3.5 | 0.00 | 0.00 | 0.00 | 83 | 1016.9 |
| 20260508094518 | 49 | 233 | 0.9 | 3.5 | 0.00 | 0.00 | 0.00 | 82 | 1016.9 |
| 20260508093516 | 50 | 249 | 0.9 | 2.6 | 0.00 | 0.00 | 0.00 | 82 | 1017.0 |
| 20260508092615 | 50 | 236 | 0.9 | 2.6 | 0.00 | 0.00 | 0.00 | 82 | 1016.7 |
| 20260508091613 | 50 | 241 | 0.9 | 3.5 | 0.00 | 0.00 | 0.00 | 82 | 1016.8 |
| 20260508090611 | 50 | 246 | 0.9 | 2.6 | 0.00 | 0.00 | 0.00 | 82 | 1016.9 |
| 20260508085629 | 50 | 247 | 0.0 | 0.9 | 0.00 | 0.00 | 0.00 | 81 | 1016.8 |
| 20260508084607 | 50 | 247 | 0.0 | 0.9 | 0.00 | 0.00 | 0.00 | 81 | 1016.8 |
| 20260508083606 | 50 | 0.0 | 0.0 | 0.00 | 0.00 | 0.00 | 80 | 1016.7 | |
| 20260508082604 | 50 | 0.0 | 0.0 | 0.00 | 0.00 | 0.00 | 79 | 1016.6 | |
| 20260508081622 | 51 | 0.0 | 0.0 | 0.00 | 0.00 | 0.00 | 79 | 1016.6 | |
| 20260508080601 | 51 | 247 | 0.0 | 1.7 | 0.00 | 0.00 | 0.00 | 79 | 1016.5 |
| 20260508075559 | 51 | 255 | 0.0 | 0.9 | 0.00 | 0.00 | 0.00 | 78 | 1016.7 |
| 20260508074557 | 52 | 255 | 0.0 | 0.9 | 0.00 | 0.00 | 0.00 | 77 | 1016.6 |
| 20260508073555 | 52 | 0.0 | 0.0 | 0.00 | 0.00 | 0.00 | 77 | 1016.6 | |
| 20260508072554 | 52 | 0.0 | 0.0 | 0.00 | 0.00 | 0.00 | 77 | 1016.6 | |
| 20260508071552 | 53 | 291 | 0.0 | 1.7 | 0.00 | 0.00 | 0.00 | 77 | 1016.7 |
| 20260508070551 | 53 | 259 | 0.0 | 1.7 | 0.00 | 0.00 | 0.00 | 77 | 1016.8 |
| 20260508065549 | 52 | 287 | 0.0 | 1.7 | 0.00 | 0.00 | 0.00 | 76 | 1016.9 |
| 20260508064547 | 52 | 291 | 0.0 | 1.7 | 0.00 | 0.00 | 0.00 | 75 | 1016.8 |
| 20260508063545 | 52 | 291 | 0.0 | 0.9 | 0.00 | 0.00 | 0.00 | 75 | 1016.7 |
| 20260508062543 | 53 | 291 | 0.0 | 0.9 | 0.00 | 0.00 | 0.00 | 75 | 1016.8 |
| 20260508061541 | 53 | 0.0 | 0.0 | 0.00 | 0.00 | 0.00 | 74 | 1016.7 | |
| 20260508060540 | 53 | 0.0 | 0.0 | 0.00 | 0.00 | 0.00 | 74 | 1016.7 | |
| 20260508055538 | 53 | 291 | 0.0 | 0.9 | 0.00 | 0.00 | 0.00 | 73 | 1016.6 |
| 20260508054536 | 54 | 0.0 | 0.0 | 0.00 | 0.00 | 0.00 | 72 | 1016.8 | |
| 20260508053555 | 54 | 0.0 | 0.0 | 0.00 | 0.00 | 0.00 | 71 | 1016.9 | |
| 20260508052533 | 55 | 0.0 | 0.0 | 0.00 | 0.00 | 0.00 | 69 | 1016.8 | |
| 20260508051531 | 55 | 0.0 | 0.0 | 0.00 | 0.00 | 0.00 | 69 | 1016.9 | |
| 20260508050529 | 56 | 0.0 | 0.0 | 0.00 | 0.00 | 0.00 | 68 | 1016.9 | |
| 20260508045548 | 56 | 0.0 | 0.0 | 0.00 | 0.00 | 0.00 | 68 | 1016.8 | |
| 20260508044526 | 57 | 0.0 | 0.0 | 0.00 | 0.00 | 0.00 | 66 | 1016.8 | |
| 20260508043524 | 58 | 0.0 | 0.0 | 0.00 | 0.00 | 0.00 | 66 | 1017.0 | |
| 20260508042523 | 58 | 0.0 | 0.0 | 0.00 | 0.00 | 0.00 | 65 | 1016.9 | |
| 20260508041541 | 59 | 0.0 | 0.0 | 0.00 | 0.00 | 0.00 | 65 | 1016.9 | |
| 20260508040520 | 59 | 12 | 0.0 | 0.9 | 0.00 | 0.00 | 0.00 | 64 | 1016.8 |
| 20260508035517 | 59 | 0.0 | 0.0 | 0.00 | 0.00 | 0.00 | 62 | 1016.9 | |
| 20260508034516 | 60 | 0.0 | 0.0 | 0.00 | 0.00 | 0.00 | 60 | 1016.7 | |
| 20260508033614 | 61 | 0.0 | 0.0 | 0.00 | 0.00 | 0.00 | 59 | 1016.7 | |
| 20260508032613 | 61 | 0.0 | 0.0 | 0.00 | 0.00 | 0.00 | 59 | 1016.6 | |
| 20260508031611 | 62 | 12 | 0.9 | 1.7 | 0.00 | 0.00 | 0.00 | 58 | 1016.7 |
| 20260508030612 | 62 | 326 | 0.9 | 1.7 | 0.00 | 0.00 | 0.00 | 57 | 1016.6 |
| 20260508025607 | 62 | 332 | 0.0 | 0.9 | 0.00 | 0.00 | 0.00 | 57 | 1016.7 |
| 20260508024626 | 62 | 331 | 0.0 | 0.9 | 0.00 | 0.00 | 0.00 | 56 | 1016.7 |
| 20260508023604 | 63 | 352 | 0.9 | 1.7 | 0.00 | 0.00 | 0.00 | 56 | 1016.9 |
| 20260508022602 | 63 | 9 | 0.9 | 1.7 | 0.00 | 0.00 | 0.00 | 55 | 1016.9 |
| 20260508021620 | 63 | 4 | 0.9 | 1.7 | 0.00 | 0.00 | 0.00 | 55 | 1016.9 |
| 20260508020659 | 64 | 8 | 0.9 | 2.6 | 0.00 | 0.00 | 0.00 | 54 | 1017.0 |
| 20260508015617 | 64 | 351 | 0.9 | 2.6 | 0.00 | 0.00 | 0.00 | 54 | 1017.1 |
| 20260508014617 | 64 | 358 | 1.7 | 2.6 | 0.00 | 0.00 | 0.00 | 55 | 1017.1 |
| 20260508013553 | 64 | 346 | 2.6 | 5.2 | 0.00 | 0.00 | 0.00 | 53 | 1017.1 |
| 20260508012552 | 64 | 360 | 1.7 | 3.5 | 0.00 | 0.00 | 0.00 | 54 | 1017.3 |
| 20260508011550 | 64 | 31 | 1.7 | 3.5 | 0.00 | 0.00 | 0.00 | 53 | 1017.4 |
| 20260508010548 | 64 | 5 | 1.7 | 2.6 | 0.00 | 0.00 | 0.00 | 53 | 1017.4 |
| 20260508005547 | 64 | 353 | 1.7 | 3.5 | 0.00 | 0.00 | 0.00 | 53 | 1017.5 |
| 20260508004545 | 65 | 28 | 2.6 | 3.5 | 0.00 | 0.00 | 0.00 | 52 | 1017.6 |
| 20260508003543 | 65 | 18 | 2.6 | 6.1 | 0.00 | 0.00 | 0.00 | 52 | 1017.6 |
| 20260508002542 | 64 | 17 | 1.7 | 5.2 | 0.00 | 0.00 | 0.00 | 52 | 1017.7 |
| 20260508001540 | 64 | 359 | 1.7 | 5.2 | 0.00 | 0.00 | 0.00 | 52 | 1017.8 |
| 20260508000538 | 63 | 332 | 1.7 | 6.1 | 0.00 | 0.00 | 0.00 | 53 | 1017.9 |
| 20260507235536 | 64 | 2 | 2.6 | 6.1 | 0.00 | 0.00 | 0.00 | 52 | 1018.0 |
| 20260507234534 | 64 | 342 | 2.6 | 6.1 | 0.00 | 0.00 | 0.00 | 53 | 1018.0 |
| 20260507233533 | 64 | 234 | 0.9 | 1.7 | 0.00 | 0.00 | 0.00 | 55 | 1018.0 |
| 20260507232531 | 63 | 1 | 1.7 | 6.1 | 0.00 | 0.00 | 0.00 | 54 | 1018.0 |
| 20260507231529 | 64 | 13 | 2.6 | 7.0 | 0.00 | 0.00 | 0.00 | 55 | 1018.1 |
| 20260507230528 | 64 | 10 | 2.6 | 6.1 | 0.00 | 0.00 | 0.00 | 54 | 1018.2 |
| 20260507225547 | 63 | 357 | 2.6 | 5.2 | 0.00 | 0.00 | 0.00 | 54 | 1018.4 |
| 20260507224545 | 63 | 328 | 1.7 | 5.2 | 0.00 | 0.00 | 0.00 | 56 | 1018.5 |
| 20260507223522 | 63 | 345 | 2.6 | 5.2 | 0.00 | 0.00 | 0.00 | 55 | 1018.5 |
| 20260507222521 | 63 | 350 | 2.6 | 6.1 | 0.00 | 0.00 | 0.00 | 55 | 1018.5 |
| 20260507221519 | 63 | 4 | 4.3 | 7.8 | 0.00 | 0.00 | 0.00 | 56 | 1018.7 |
| 20260507220518 | 63 | 328 | 1.7 | 3.5 | 0.00 | 0.00 | 0.00 | 57 | 1018.9 |
| 20260507215515 | 63 | 351 | 0.9 | 5.2 | 0.00 | 0.00 | 0.00 | 57 | 1018.8 |
| 20260507214634 | 63 | 0 | 3.5 | 7.0 | 0.00 | 0.00 | 0.00 | 57 | 1019.0 |
| 20260507213612 | 63 | 7 | 3.5 | 7.0 | 0.00 | 0.00 | 0.00 | 57 | 1019.1 |
| 20260507212611 | 63 | 341 | 1.7 | 5.2 | 0.00 | 0.00 | 0.00 | 59 | 1019.3 |
| 20260507211629 | 62 | 303 | 1.7 | 3.5 | 0.00 | 0.00 | 0.00 | 59 | 1019.2 |
| 20260507210608 | 62 | 0 | 1.7 | 7.8 | 0.00 | 0.00 | 0.00 | 58 | 1019.5 |
| 20260507205606 | 62 | 356 | 2.6 | 6.1 | 0.00 | 0.00 | 0.00 | 60 | 1019.5 |
| 20260507204604 | 61 | 12 | 2.6 | 7.8 | 0.00 | 0.00 | 0.00 | 58 | 1019.5 |
| 20260507203602 | 61 | 32 | 2.6 | 6.1 | 0.00 | 0.00 | 0.00 | 60 | 1019.6 |
| 20260507202600 | 62 | 350 | 2.6 | 6.1 | 0.00 | 0.00 | 0.00 | 59 | 1019.7 |
| 20260507201558 | 62 | 349 | 1.7 | 6.1 | 0.00 | 0.00 | 0.00 | 60 | 1019.8 |
| 20260507200557 | 61 | 267 | 0.9 | 2.6 | 0.00 | 0.00 | 0.00 | 62 | 1020.0 |
| 20260507195616 | 61 | 347 | 1.7 | 5.2 | 0.00 | 0.00 | 0.00 | 63 | 1020.1 |
| 20260507194553 | 60 | 4 | 3.5 | 7.8 | 0.00 | 0.00 | 0.00 | 62 | 1020.1 |
| 20260507193552 | 61 | 14 | 2.6 | 6.1 | 0.00 | 0.00 | 0.00 | 61 | 1020.2 |
| 20260507192550 | 62 | 10 | 2.6 | 6.1 | 0.00 | 0.00 | 0.00 | 60 | 1020.2 |
| 20260507191609 | 61 | 217 | 0.9 | 1.7 | 0.00 | 0.00 | 0.00 | 64 | 1020.2 |
| 20260507190547 | 60 | 313 | 0.9 | 3.5 | 0.00 | 0.00 | 0.00 | 65 | 1020.4 |
| 20260507185545 | 59 | 44 | 0.9 | 2.6 | 0.00 | 0.00 | 0.00 | 65 | 1020.4 |
| 20260507184543 | 59 | 14 | 2.6 | 5.2 | 0.00 | 0.00 | 0.00 | 64 | 1020.4 |
| 20260507183542 | 60 | 353 | 1.7 | 3.5 | 0.00 | 0.00 | 0.00 | 63 | 1020.5 |
| 20260507182540 | 60 | 16 | 0.9 | 2.6 | 0.00 | 0.00 | 0.00 | 63 | 1020.6 |
| 20260507181538 | 60 | 12 | 0.9 | 1.7 | 0.00 | 0.00 | 0.00 | 62 | 1020.7 |
| 20260507180536 | 60 | 293 | 0.9 | 2.6 | 0.00 | 0.00 | 0.00 | 64 | 1020.6 |
| 20260507175534 | 60 | 320 | 0.9 | 1.7 | 0.00 | 0.00 | 0.00 | 64 | 1020.7 |
| 20260507174532 | 60 | 288 | 1.7 | 3.5 | 0.00 | 0.00 | 0.00 | 65 | 1020.8 |
| 20260507173531 | 60 | 321 | 0.9 | 1.7 | 0.00 | 0.00 | 0.00 | 64 | 1020.8 |
| 20260507172529 | 60 | 241 | 1.7 | 5.2 | 0.00 | 0.00 | 0.00 | 65 | 1020.8 |
| 20260507171551 | 61 | 256 | 1.7 | 5.2 | 0.00 | 0.00 | 0.00 | 65 | 1020.8 |
| 20260507170546 | 61 | 231 | 0.9 | 2.6 | 0.00 | 0.00 | 0.00 | 68 | 1020.7 |
| 20260507165544 | 60 | 253 | 1.7 | 2.6 | 0.00 | 0.00 | 0.00 | 67 | 1020.8 |
| 20260507164522 | 60 | 245 | 0.9 | 1.7 | 0.00 | 0.00 | 0.00 | 67 | 1020.8 |
| 20260507163521 | 60 | 167 | 0.9 | 3.5 | 0.00 | 0.00 | 0.00 | 68 | 1020.7 |
| 20260507162518 | 59 | 210 | 2.6 | 5.2 | 0.00 | 0.00 | 0.00 | 70 | 1021.0 |
| 20260507161517 | 58 | 227 | 2.6 | 5.2 | 0.00 | 0.00 | 0.00 | 70 | 1020.9 |
| 20260507160615 | 59 | 236 | 0.9 | 1.7 | 0.00 | 0.00 | 0.00 | 70 | 1020.9 |
| 20260507155654 | 59 | 230 | 1.7 | 2.6 | 0.00 | 0.00 | 0.00 | 70 | 1020.9 |
| 20260507154613 | 59 | 247 | 2.6 | 5.2 | 0.00 | 0.00 | 0.00 | 73 | 1020.8 |
| 20260507153610 | 58 | 235 | 0.9 | 2.6 | 0.00 | 0.00 | 0.00 | 75 | 1020.9 |
| 20260507152609 | 56 | 230 | 1.7 | 5.2 | 0.00 | 0.00 | 0.00 | 80 | 1021.1 |
| 20260507151607 | 53 | 171 | 0.9 | 1.7 | 0.00 | 0.00 | 0.00 | 81 | 1021.1 |
| 20260507150605 | 53 | 190 | 0.9 | 1.7 | 0.00 | 0.00 | 0.00 | 82 | 1021.3 |
| 20260507145624 | 52 | 165 | 0.9 | 1.7 | 0.00 | 0.00 | 0.00 | 82 | 1021.2 |
| 20260507144622 | 52 | 191 | 0.9 | 1.7 | 0.00 | 0.00 | 0.00 | 83 | 1021.2 |
| 20260507143620 | 51 | 169 | 0.9 | 1.7 | 0.00 | 0.00 | 0.00 | 83 | 1021.2 |
| 20260507142618 | 51 | 152 | 0.9 | 1.7 | 0.00 | 0.00 | 0.00 | 82 | 1021.2 |
| 20260507141556 | 51 | 153 | 0.9 | 1.7 | 0.00 | 0.00 | 0.00 | 82 | 1021.1 |
| 20260507140555 | 51 | 161 | 0.9 | 2.6 | 0.00 | 0.00 | 0.00 | 82 | 1021.1 |
| 20260507135553 | 51 | 179 | 0.0 | 0.9 | 0.00 | 0.00 | 0.00 | 82 | 1020.9 |
| 20260507134612 | 51 | 180 | 0.0 | 0.9 | 0.00 | 0.00 | 0.00 | 82 | 1020.9 |
| 20260507133550 | 51 | 203 | 0.0 | 0.9 | 0.00 | 0.00 | 0.00 | 82 | 1020.7 |
| 20260507132608 | 50 | 220 | 0.0 | 1.7 | 0.00 | 0.00 | 0.00 | 82 | 1020.9 |
| 20260507131546 | 50 | 195 | 0.0 | 1.7 | 0.00 | 0.00 | 0.00 | 82 | 1020.8 |
| 20260507130545 | 51 | 211 | 0.9 | 2.6 | 0.00 | 0.00 | 0.00 | 81 | 1020.5 |
| 20260507125542 | 51 | 214 | 0.9 | 2.6 | 0.00 | 0.00 | 0.00 | 81 | 1020.7 |
| 20260507124541 | 51 | 193 | 0.0 | 0.9 | 0.00 | 0.00 | 0.00 | 81 | 1020.8 |
| 20260507123540 | 51 | 158 | 0.0 | 1.7 | 0.00 | 0.00 | 0.00 | 82 | 1020.8 |
| 20260507122558 | 51 | 221 | 0.0 | 0.9 | 0.00 | 0.00 | 0.00 | 81 | 1020.8 |
| 20260507121536 | 51 | 218 | 0.0 | 1.7 | 0.00 | 0.00 | 0.00 | 82 | 1020.8 |
| 20260507120534 | 51 | 214 | 0.0 | 0.9 | 0.00 | 0.00 | 0.00 | 82 | 1020.9 |
| 20260507115532 | 51 | 211 | 0.0 | 0.9 | 0.00 | 0.00 | 0.00 | 82 | 1021.1 |
| 20260507114551 | 51 | 173 | 0.0 | 0.9 | 0.00 | 0.00 | 0.00 | 81 | 1021.2 |
| 20260507113529 | 51 | 164 | 0.0 | 0.9 | 0.00 | 0.00 | 0.00 | 81 | 1021.3 |
| 20260507112527 | 51 | 203 | 0.0 | 0.9 | 0.00 | 0.00 | 0.00 | 81 | 1021.3 |
| 20260507111525 | 51 | 0.0 | 0.0 | 0.00 | 0.00 | 0.00 | 81 | 1021.3 | |
| 20260507110524 | 51 | 167 | 0.0 | 0.9 | 0.00 | 0.00 | 0.00 | 81 | 1021.3 |
| 20260507105522 | 51 | 216 | 0.0 | 0.9 | 0.00 | 0.00 | 0.00 | 81 | 1021.3 |
| 20260507104521 | 51 | 175 | 0.0 | 1.7 | 0.00 | 0.00 | 0.00 | 81 | 1021.3 |